This is the latest recevied weather packets stored in our database for station/object OM7FX-15. If no packets are shown the sender has not sent any weather packets the latest 10 day(s).
| Time | Temp. | Humidity | Pressure | Rain* | Wind** | Luminosity | Snow |
|---|---|---|---|---|---|---|---|
| 1777587376 | 22.78° C | 41% | 980 hPa | - | - | - | - |
| 1777586476 | 22.78° C | 41% | 979.9 hPa | - | - | - | - |
| 1777585576 | 22.78° C | 41% | 979.9 hPa | - | - | - | - |
| 1777584676 | 22.78° C | 41% | 979.9 hPa | - | - | - | - |
| 1777583776 | 22.78° C | 42% | 979.8 hPa | - | - | - | - |
| 1777582876 | 23.33° C | 41% | 979.7 hPa | - | - | - | - |
| 1777581976 | 23.33° C | 40% | 979.7 hPa | - | - | - | - |
| 1777581076 | 23.33° C | 40% | 979.6 hPa | - | - | - | - |
| 1777580176 | 23.33° C | 39% | 979.7 hPa | - | - | - | - |
| 1777579276 | 23.33° C | 41% | 979.8 hPa | - | - | - | - |
| 1777578376 | 23.33° C | 39% | 979.7 hPa | - | - | - | - |
| 1777577476 | 23.33° C | 37% | 979.5 hPa | - | - | - | - |
| 1777576576 | 23.33° C | 42% | 979.4 hPa | - | - | - | - |
| 1777575676 | 23.33° C | 42% | 979.3 hPa | - | - | - | - |
| 1777574775 | 23.33° C | 45% | 979.1 hPa | - | - | - | - |
| 1777573875 | 23.33° C | 44% | 978.9 hPa | - | - | - | - |
| 1777572975 | 23.33° C | 43% | 978.8 hPa | - | - | - | - |
| 1777572075 | 23.33° C | 42% | 978.6 hPa | - | - | - | - |
| 1777571175 | 23.33° C | 42% | 978.6 hPa | - | - | - | - |
| 1777569404 | 22.78° C | 42% | 978.2 hPa | - | - | - | - |
| 1777568505 | 22.78° C | 42% | 978.2 hPa | - | - | - | - |
| 1777567604 | 22.78° C | 41% | 978.1 hPa | - | - | - | - |
| 1777566704 | 22.78° C | 41% | 978 hPa | - | - | - | - |
| 1777565804 | 22.78° C | 40% | 978 hPa | - | - | - | - |
| 1777564904 | 22.78° C | 39% | 977.8 hPa | - | - | - | - |
* Rain since midnight (hover to see other rain measurements)
** Current wind speed in m/s (hover to see current wind gust speed)